Weather past 2 weeks in Saint-Pierre, Saint Pierre and Miquelon

Now
52 °F

Light rain. Fog.


Feels Like: 47 °F
Forecast: 51 / 55 °F
Wind: 15 mph from Northeast

Location: Saint-Pierre

Current Time: Oct 25, 2014 at 6:50:08 AM

Latest Report: Oct 25, 2014 at 6:00 AM


Visibility: 2 mi

Pressure: 29.36 "Hg

Humidity: 100%

Dew point: 52 °F

Location of Saint-PierreLocation

Historic Weather in Saint-Pierre — Graph

°F

Saint-Pierre temperature yesterday

Maximum temperature yesterday: 54 °F (at 12:00 PM)
Minimum temperature yesterday: 52 °F (at 6:00 AM)
Average temperature yesterday: 53 °F

Past Weeks' High & Low Weather Summary

 TemperatureHumidityPressure
High61 °F (Oct 10, 2:00 PM)100% (Oct 15, 7:00 AM)30.45 "Hg (Oct 15, 7:00 AM)
Low43 °F (Oct 22, 6:00 AM)58% (Oct 13, 12:00 PM)29.33 "Hg (Oct 19, 6:00 AM)
Average53 °F84%29.97 "Hg
* Reported Oct 10 6:00 AM — Oct 25 6:00 AM, Saint-Pierre, Weather by CustomWeather, © 2014

Note: Actual official high and low records may vary slightly from our data, if they occured in-between our weather recording intervals... More about our weather records

Advertising

Saint-Pierre weather history for previous 24 hours

 ConditionsComfort  
Time TempWeatherWind HumidityBarometerVisibility
6:00 AM
Oct 25
52 °FLight rain. Fog.15 mph100%29.36 "Hg2 mi
8:00 PM
Oct 24
54 °FDrizzle. Fog.20 mph100%29.53 "Hg1 mi
7:00 PM54 °FDrizzle. Fog.22 mph94%29.56 "Hg1 mi
6:00 PM54 °FDrizzle. Fog.21 mph94%29.59 "Hg1 mi
5:00 PM54 °FRain. Fog.22 mph94%29.62 "Hg1 mi
4:00 PM54 °FRain. Fog.22 mph94%29.62 "Hg3 mi
3:00 PM54 °FDrizzle. Fog.23 mph94%29.65 "Hg3 mi
2:00 PM54 °FFog.21 mph94%29.68 "Hg3 mi
1:00 PM54 °FLight rain. Fog.23 mph94%29.74 "Hg2 mi
12:00 PM54 °FMore clouds than sun.25 mph94%29.77 "HgN/A
11:00 AM52 °FMore clouds than sun.24 mph100%29.80 "HgN/A
10:00 AM52 °FDrizzle. Fog.24 mph100%29.83 "Hg1 mi
9:00 AM52 °FMostly cloudy.25 mph100%29.83 "HgN/A
8:00 AM52 °FLow clouds.22 mph94%29.86 "Hg5 mi
7:00 AM52 °FLow clouds.24 mph94%29.89 "HgN/A
6:00 AM52 °FLow clouds.22 mph94%29.89 "HgN/A
Weather by CustomWeather, © 2014

See weather overviewHow to use our weather pages